Regional Weather Roundup
Issued by NWS

Home | Current Version | Previous Version | Text Only | Print | Product List | Glossary Off
Versions: 1 2 3 4 5 6 7 8 9 10 11 12 13 14 15 16 17 18 19 20 21 22 23 24 25 26 27 28 29 30 31 32 33 34 35 36 37 38 39 40 41 42 43 44 45 46 47 48 49 50

000
ASUS43 KIND 091959
RWRIN

WEATHER ROUNDUP FOR INDIANA
NATIONAL WEATHER SERVICE INDIANAPOLIS IN
300 PM EST FRI DEC 09 2016

NOTE: "FAIR" INDICATES FEW OR NO CLOUDS BELOW 12,000 FEET WITH NO
SIGNIFICANT WEATHER AND/OR OBSTRUCTIONS TO VISIBILITY.

* - STATION DOES NOT REPORT WEATHER SUCH AS PRECIPITATION OR FOG.

+ - STATION NOT QUALITY CONTROLLED BY THE NATIONAL WEATHER SERVICE.
    USE DATA WITH CAUTION...ESPECIALLY DEWPOINT AND RELATIVE
    HUMIDITY OBSERVATIONS.

INZ001>003-010>013-019-020-092100-
NORTHWEST INDIANA

CITY           SKY/WX    TMP DP  RH WIND       PRES   REMARKS
GARY /AIRPORT/ CLOUDY    28  14  54 W13       30.51S WCI  18

$$

LMZ046-743>745-092100-
SOUTHERN LAKE MICHIGAN

STATION/POSITION TIME  TEMP    WIND        PRES    WAVE
                       AIR SEA DIR/SP/G            HT
                 (UTC) (F)     (DEG/KT/KT) (MB)    (FT)

$$

INZ004-005-014>016-021>024-092100-
NORTH CENTRAL INDIANA

CITY           SKY/WX    TMP DP  RH WIND       PRES   REMARKS
ELKHART        LGT SNOW  27  21  80 NW9       30.45R WCI  17
GOSHEN         CLOUDY    27  18  69 W13       30.45R WCI  16
PERU/GRISSOM   CLOUDY    27  16  63 W13       30.47R WCI  16
SOUTH BEND     LGT SNOW  24  20  84 W10       30.47R VSB 1   WCI  14

$$

INZ006>009-017-018-025>027-092100-
NORTHEAST INDIANA

CITY           SKY/WX    TMP DP  RH WIND       PRES   REMARKS
ANGOLA *+      CLOUDY    28  21  74 W14       30.39S WCI  17
FORT WAYNE     PTSUNNY   29  17  61 W17       30.45S WCI  17
KENDALLVILLE + PTSUNNY   29  19  67 NW12G20   30.42R WCI  19

$$

INZ028-029-035-036-043>045-051>053-092100-
WEST CENTRAL INDIANA

CITY           SKY/WX    TMP DP  RH WIND       PRES   REMARKS
CRAWFORDSVL +  CLOUDY    25  18  74 W8        30.52R WCI  16
GREENCASTLE +  CLOUDY    27  18  69 W5        30.53R WCI  21
LAFAYETTE      CLOUDY    26  16  65 W10       30.52R WCI  16
TERRE HAUTE    CLOUDY    27  13  55 NW7       30.56R WCI  19

$$

INZ030>032-037>040-046>048-054>057-064-065-092100-
CENTRAL INDIANA

CITY           SKY/WX    TMP DP  RH WIND       PRES   REMARKS
ANDERSON       CLOUDY    25  18  74 W12       30.50S WCI  14
COLUMBUS       CLOUDY    27  16  63 W9        30.53F WCI  17
GREENWOOD *+   CLOUDY    27  16  62 NW10      30.51S WCI  17
INDIANAPOLIS   CLOUDY    26  14  60 W10       30.51R WCI  16
-EAGLE CREEK   FLURRIES  26  16  65 W8        30.50S WCI  18
KOKOMO +       FLURRIES  26  17  68 W16       30.49S WCI  14
SHELBYVILLE    CLOUDY    27  15  61 W8        30.50S WCI  19

$$

INZ033-034-041-042-049-050-058-059-092100-
EAST CENTRAL INDIANA

CITY           SKY/WX    TMP DP  RH WIND       PRES   REMARKS
MUNCIE         CLOUDY    26  17  68 NW10      30.48S WCI  16

$$

INZ060-061-067>069-081>083-085>088-092100-
SOUTHWEST INDIANA

CITY           SKY/WX    TMP DP  RH WIND       PRES   REMARKS
EVANSVILLE     PTSUNNY   30  14  51 NW6       30.59F WCI  24
HUNTINGBURG *+ CLOUDY    26  15  63 NW3       30.58S

$$

INZ062-063-066-070>080-084-089>092-092100-
SOUTH CENTRAL AND SOUTHEAST INDIANA

CITY           SKY/WX    TMP DP  RH WIND       PRES   REMARKS
BLOOMINGTON    CLOUDY    25  13  60 W9        30.53S WCI  15
MADISON *+     CLOUDY    27  12  54 W7        30.55S WCI  19
SEYMOUR +      CLOUDY    28  14  54 SW7       30.55S WCI  21

$$




USA.gov is the U.S. government's official web portal to all federal, state and local government web resources and services.